When you browse on this site, cookies collect data to enhance your experience and personalize the content and advertising you see.
Visit our Privacy Policy to learn more. By continuing to use the site, you agree to this use of cookies and data.
  • In Hungary
  • List of Countries
  • For 7 days
  • Water Temperature
  • Satellite Maps
  • Weather Map
  • News
  • Weather Widgets
  • user-avatar
    Login

    Hourly Weather Dili

    Today, 20 July, Saturday

    Time Temperature Precipitation Wind Pressure Humidity
    00:00 +25°C° 0 mm 2 mps 754 mmHg 77%
    01:00 +25°C° 0 mm 2 mps 754 mmHg 71%
    02:00 +24°C° 0 mm 2 mps 753 mmHg 67%
    03:00 +24°C° 0 mm 2 mps 754 mmHg 66%
    04:00 +24°C° 0 mm 2 mps 754 mmHg 65%
    05:00 +24°C° 0 mm 2 mps 754 mmHg 65%
    06:00 +26°C° 0 mm 2 mps 754 mmHg 54%
    07:00 +28°C° 0 mm 2 mps 755 mmHg 43%
    08:00 +30°C° 0 mm 1 mps 755 mmHg 36%
    09:00 +32°C° 0 mm 2 mps 755 mmHg 32%
    10:00 +35°C° 0 mm 3 mps 755 mmHg 27%
    11:00 +36°C° 0 mm 3 mps 755 mmHg 22%
    12:00 +36°C° 0 mm 3 mps 754 mmHg 24%
    13:00 +36°C° 0 mm 4 mps 753 mmHg 26%
    14:00 +36°C° 0 mm 4 mps 753 mmHg 28%
    15:00 +34°C° 0 mm 4 mps 753 mmHg 36%
    16:00 +32°C° 0 mm 4 mps 753 mmHg 45%
    17:00 +29°C° 0 mm 4 mps 753 mmHg 54%
    18:00 +28°C° 0 mm 4 mps 753 mmHg 56%
    19:00 +26°C° 0 mm 4 mps 754 mmHg 58%
    20:00 +25°C° 0 mm 3 mps 754 mmHg 61%
    21:00 +25°C° 0 mm 3 mps 754 mmHg 57%
    22:00 +24°C° 0 mm 3 mps 754 mmHg 53%
    23:00 +24°C° 0 mm 2 mps 754 mmHg 50%

    Tomorrow, 21 July, Sunday

    Time Temperature Precipitation Wind Pressure Humidity
    00:00 +24°C° 0 mm 2 mps 754 mmHg 48%
    01:00 +24°C° 0 mm 2 mps 754 mmHg 47%
    02:00 +24°C° 0 mm 2 mps 753 mmHg 46%
    03:00 +24°C° 0 mm 2 mps 753 mmHg 42%
    04:00 +24°C° 0 mm 2 mps 753 mmHg 39%
    05:00 +24°C° 0 mm 2 mps 753 mmHg 35%
    06:00 +26°C° 0 mm 2 mps 753 mmHg 35%
    07:00 +28°C° 0 mm 3 mps 754 mmHg 36%
    08:00 +29°C° 0 mm 3 mps 754 mmHg 36%
    09:00 +32°C° 0 mm 4 mps 754 mmHg 34%
    10:00 +34°C° 0 mm 4 mps 754 mmHg 32%
    11:00 +35°C° 0 mm 5 mps 754 mmHg 30%
    12:00 +35°C° 0 mm 5 mps 753 mmHg 31%
    13:00 +35°C° 0 mm 6 mps 753 mmHg 31%
    14:00 +35°C° 0 mm 6 mps 752 mmHg 32%
    15:00 +33°C° 0 mm 6 mps 752 mmHg 38%
    16:00 +32°C° 0 mm 6 mps 752 mmHg 44%
    17:00 +29°C° 0 mm 6 mps 752 mmHg 50%
    18:00 +27°C° 0 mm 5 mps 752 mmHg 51%
    19:00 +26°C° 0 mm 4 mps 753 mmHg 52%
    20:00 +23°C° 0 mm 4 mps 753 mmHg 52%
    21:00 +24°C° 0 mm 3 mps 753 mmHg 48%
    22:00 +24°C° 0 mm 3 mps 753 mmHg 44%
    23:00 +24°C° 0 mm 3 mps 753 mmHg 40%

    Day after tomorrow, 22 July, Monday

    Time Temperature Precipitation Wind Pressure Humidity
    00:00 +24°C° 0 mm 3 mps 753 mmHg 40%
    01:00 +24°C° 0 mm 2 mps 753 mmHg 39%
    02:00 +24°C° 0 mm 2 mps 753 mmHg 39%
    03:00 +24°C° 0 mm 2 mps 753 mmHg 38%
    04:00 +24°C° 0 mm 2 mps 753 mmHg 36%
    05:00 +23°C° 0 mm 2 mps 753 mmHg 35%
    06:00 +25°C° 0 mm 2 mps 753 mmHg 35%
    07:00 +27°C° 0 mm 2 mps 754 mmHg 35%
    08:00 +29°C° 0 mm 2 mps 754 mmHg 36%
    09:00 +30°C° 0 mm 2 mps 754 mmHg 34%
    10:00 +31°C° 0 mm 3 mps 754 mmHg 32%
    11:00 +34°C° 0 mm 4 mps 754 mmHg 30%
    12:00 +34°C° 0 mm 4 mps 753 mmHg 31%
    13:00 +34°C° 0 mm 4 mps 753 mmHg 32%
    14:00 +34°C° 0 mm 4 mps 752 mmHg 32%
    15:00 +32°C° 0 mm 4 mps 752 mmHg 38%
    16:00 +30°C° 0 mm 4 mps 752 mmHg 44%
    17:00 +28°C° 0 mm 4 mps 752 mmHg 50%
    18:00 +27°C° 0 mm 4 mps 753 mmHg 53%
    19:00 +25°C° 0 mm 4 mps 753 mmHg 56%
    20:00 +22°C° 0 mm 3 mps 754 mmHg 59%
    21:00 +22°C° 0 mm 3 mps 754 mmHg 58%
    22:00 +22°C° 0 mm 3 mps 754 mmHg 58%
    23:00 +22°C° 0 mm 3 mps 754 mmHg 57%

    23 July, Tuesday

    Time Temperature Precipitation Wind Pressure Humidity
    00:00 +22°C° 0 mm 3 mps 754 mmHg 56%
    01:00 +22°C° 0 mm 3 mps 753 mmHg 56%
    02:00 +22°C° 0 mm 3 mps 753 mmHg 55%
    03:00 +22°C° 0 mm 3 mps 753 mmHg 47%
    04:00 +23°C° 0 mm 2 mps 753 mmHg 40%
    05:00 +23°C° 0 mm 2 mps 753 mmHg 32%
    06:00 +24°C° 0 mm 2 mps 754 mmHg 33%
    07:00 +26°C° 0 mm 2 mps 754 mmHg 34%
    08:00 +28°C° 0 mm 2 mps 754 mmHg 35%
    09:00 +30°C° 0 mm 3 mps 754 mmHg 34%
    10:00 +31°C° 0 mm 3 mps 754 mmHg 33%
    11:00 +34°C° 0 mm 4 mps 754 mmHg 33%
    12:00 +34°C° 0 mm 5 mps 753 mmHg 33%
    13:00 +34°C° 0 mm 5 mps 753 mmHg 34%
    14:00 +34°C° 0 mm 5 mps 752 mmHg 34%
    15:00 +32°C° 0 mm 5 mps 752 mmHg 40%
    16:00 +29°C° 0 mm 5 mps 752 mmHg 45%
    17:00 +27°C° 0 mm 5 mps 752 mmHg 51%
    18:00 +26°C° 0 mm 5 mps 753 mmHg 57%
    19:00 +23°C° 0 mm 5 mps 754 mmHg 62%
    20:00 +21°C° 0 mm 4 mps 754 mmHg 67%
    21:00 +21°C° 0 mm 4 mps 754 mmHg 66%
    22:00 +21°C° 0 mm 4 mps 755 mmHg 65%
    23:00 +21°C° 0 mm 4 mps 755 mmHg 63%

    24 July, Wednesday

    Time Temperature Precipitation Wind Pressure Humidity
    00:00 +21°C° 0 mm 3 mps 754 mmHg 55%
    01:00 +22°C° 0 mm 3 mps 754 mmHg 47%
    02:00 +22°C° 0 mm 3 mps 753 mmHg 39%
    03:00 +22°C° 0 mm 3 mps 754 mmHg 42%
    04:00 +22°C° 0 mm 3 mps 754 mmHg 44%
    05:00 +23°C° 0 mm 2 mps 754 mmHg 46%
    06:00 +24°C° 0 mm 3 mps 754 mmHg 46%
    07:00 +26°C° 0 mm 3 mps 755 mmHg 46%
    08:00 +28°C° 0 mm 3 mps 756 mmHg 46%
    09:00 +29°C° 0 mm 3 mps 755 mmHg 43%
    10:00 +31°C° 0 mm 3 mps 755 mmHg 39%
    11:00 +34°C° 0 mm 3 mps 755 mmHg 36%
    12:00 +34°C° 0 mm 4 mps 754 mmHg 36%
    13:00 +34°C° 0 mm 4 mps 754 mmHg 36%
    14:00 +34°C° 0 mm 4 mps 753 mmHg 36%
    15:00 +32°C° 0 mm 4 mps 753 mmHg 44%
    16:00 +30°C° 0 mm 4 mps 753 mmHg 53%
    17:00 +28°C° 0 mm 4 mps 753 mmHg 61%
    18:00 +26°C° 0 mm 4 mps 754 mmHg 64%
    19:00 +24°C° 0 mm 3 mps 755 mmHg 67%
    20:00 +21°C° 0 mm 3 mps 755 mmHg 70%
    21:00 +21°C° 0 mm 3 mps 756 mmHg 67%
    22:00 +21°C° 0 mm 3 mps 756 mmHg 64%
    23:00 +21°C° 0 mm 3 mps 756 mmHg 61%

    25 July, Thursday

    Time Temperature Precipitation Wind Pressure Humidity
    00:00 +21°C° 0 mm 3 mps 756 mmHg 62%
    01:00 +21°C° 0 mm 3 mps 756 mmHg 62%
    02:00 +21°C° 0 mm 2 mps 755 mmHg 63%
    03:00 +21°C° 0 mm 2 mps 755 mmHg 66%
    04:00 +21°C° 0 mm 2 mps 756 mmHg 69%
    05:00 +23°C° 0 mm 2 mps 756 mmHg 72%
    06:00 +25°C° 0 mm 2 mps 756 mmHg 68%
    07:00 +27°C° 0 mm 2 mps 756 mmHg 63%
    08:00 +29°C° 0 mm 2 mps 756 mmHg 59%
    09:00 +29°C° 0 mm 2 mps 756 mmHg 60%
    10:00 +30°C° 0 mm 2 mps 756 mmHg 61%
    11:00 +30°C° 0 mm 2 mps 756 mmHg 62%
    12:00 +30°C° 0 mm 2 mps 755 mmHg 62%
    13:00 +31°C° 0 mm 2 mps 755 mmHg 61%
    14:00 +31°C° 0 mm 2 mps 754 mmHg 61%
    15:00 +30°C° 0 mm 1 mps 754 mmHg 64%
    16:00 +29°C° 0 mm 1 mps 754 mmHg 66%
    17:00 +29°C° 0 mm 1 mps 754 mmHg 69%
    18:00 +27°C° 0 mm 1 mps 754 mmHg 74%
    19:00 +25°C° 0 mm 2 mps 755 mmHg 80%
    20:00 +24°C° 0 mm 2 mps 755 mmHg 85%
    21:00 +24°C° 0 mm 2 mps 755 mmHg 82%
    22:00 +24°C° 0 mm 2 mps 755 mmHg 79%
    23:00 +24°C° 0 mm 2 mps 755 mmHg 77%
    Show more